Weather History for Monett, MO

Change the Weather History Date:

Tuesday, June 25, 2013

  Actual Average (KJLN) Record (KJLN)
Temperature  
Mean Temperature 79 °F 78 °F  
Max Temperature 87 °F 88 °F 101 °F (2012)
Min Temperature 71 °F 68 °F 50 °F (1974)
Degree Days  
Heating Degree Days 0 0  
Month to date heating degree days 2  
Since 1 June heating degree days 2  
Since 1 July heating degree days 4071  
Cooling Degree Days 14 13  
Month to date cooling degree days 251  
Year to date cooling degree days 431  
Since 1 June cooling degree days 251  
Growing Degree Days 29 (Base 50)    
Moisture  
Dew Point 68 °F    
Average Humidity 70    
Maximum Humidity 88    
Minimum Humidity 51    
Precipitation  
Precipitation 0.00 in 0.17 in 1.87 in (2003)
Month to date precipitation 5.01  
Year to date precipitation 22.96  
Sea Level Pressure  
Sea Level Pressure 29.93 in    
Wind  
Wind Speed 11 mph (South)    
Max Wind Speed 21 mph    
Max Gust Speed 29 mph    
Visibility 10 miles    
Events      
T = Trace of Precipitation, MM = Missing Value Source: NWS Daily Summary

Daily Weather History Graph

Daily Weather History Graph

Search for Another Location

Airport:

Trip Planner

Search our weather history database for the weather conditions in past years. The results will help you decide how hot, cold, wet, or windy it might be!

Date:

Astronomy

Jun. 25, 2013 Rise Set
Actual Time 5:58 AM CDT 8:39 PM CDT
Civil Twilight 5:27 AM CDT 9:10 PM CDT
Nautical Twilight 4:48 AM CDT 9:48 PM CDT
Astronomical Twilight 4:05 AM CDT 10:31 PM CDT
Moon 10:30 PM CDT 8:35 AM CDT
Length of Visible Light 15h 42m
Length of Day
14h 41m
Waning Gibbous, 92% of the Moon is Illuminated
Jun 25
Waning Gibbous
Jun 29
Last Quarter
Jul 8
New
Jul 15
First Quarter
Jul 22
Full

Hourly Weather History & Observations

Time (CDT) Temp. Heat Index Dew Point Humidity Pressure Visibility Wind Dir Wind Speed Gust Speed Precip Events Conditions
12:15 AM 73.4 °F - 68.0 °F 83% 29.99 in 10.0 mi South 9.2 mph - N/A   Clear
12:35 AM 73.4 °F - 68.0 °F 83% 29.98 in 10.0 mi SSE 8.1 mph - N/A   Clear
12:55 AM 73.4 °F - 68.0 °F 83% 29.98 in 10.0 mi South 10.4 mph - N/A   Clear
1:15 AM 75.2 °F - 68.0 °F 78% 29.99 in 10.0 mi South 8.1 mph - N/A   Clear
1:35 AM 73.4 °F - 68.0 °F 83% 29.99 in 10.0 mi South 6.9 mph - N/A   Clear
1:55 AM 73.4 °F - 68.0 °F 83% 29.99 in 10.0 mi South 6.9 mph - N/A   Clear
2:15 AM 73.4 °F - 68.0 °F 83% 29.99 in 10.0 mi South 8.1 mph - N/A   Clear
2:35 AM 73.4 °F - 68.0 °F 83% 29.99 in 10.0 mi South 6.9 mph - N/A   Clear
2:55 AM 73.4 °F - 68.0 °F 83% 29.99 in 10.0 mi South 6.9 mph - N/A   Clear
3:15 AM 71.6 °F - 68.0 °F 88% 29.97 in 10.0 mi South 8.1 mph - N/A   Clear
3:35 AM 73.4 °F - 68.0 °F 83% 29.97 in 10.0 mi South 8.1 mph - N/A   Clear
3:55 AM 71.6 °F - 68.0 °F 88% 29.96 in 10.0 mi South 8.1 mph - N/A   Clear
4:15 AM 73.4 °F - 68.0 °F 83% 29.96 in 10.0 mi South 8.1 mph - N/A   Clear
4:35 AM 73.4 °F - 68.0 °F 83% 29.96 in 10.0 mi South 10.4 mph - N/A   Clear
4:55 AM 73.4 °F - 68.0 °F 83% 29.96 in 10.0 mi South 9.2 mph - N/A   Clear
5:15 AM 73.4 °F - 68.0 °F 83% 29.96 in 10.0 mi South 9.2 mph - N/A   Clear
5:35 AM 73.4 °F - 68.0 °F 83% 29.96 in 10.0 mi South 9.2 mph 16.1 mph N/A   Clear
5:55 AM 73.4 °F - 68.0 °F 83% 29.96 in 10.0 mi South 10.4 mph 16.1 mph N/A   Clear
6:15 AM 73.4 °F - 68.0 °F 83% 29.97 in 10.0 mi South 11.5 mph 17.3 mph N/A   Clear
6:35 AM 73.4 °F - 69.8 °F 88% 29.97 in 10.0 mi South 10.4 mph - N/A   Clear
6:55 AM 73.4 °F - 69.8 °F 88% 29.98 in 10.0 mi South 10.4 mph - N/A   Clear
7:15 AM 75.2 °F - 69.8 °F 83% 29.98 in 10.0 mi South 9.2 mph - N/A   Clear
7:35 AM 77.0 °F - 69.8 °F 78% 29.97 in 10.0 mi South 10.4 mph - N/A   Clear
7:55 AM 77.0 °F - 69.8 °F 78% 29.97 in 10.0 mi South 13.8 mph 23.0 mph N/A   Clear
8:15 AM 77.0 °F - 69.8 °F 78% 29.96 in 10.0 mi South 16.1 mph 21.9 mph N/A   Clear
8:35 AM 78.8 °F - 69.8 °F 74% 29.97 in 10.0 mi South 16.1 mph 23.0 mph N/A   Clear
8:55 AM 80.6 °F 83.9 °F 69.8 °F 70% 29.97 in 10.0 mi South 15.0 mph 23.0 mph N/A   Clear
9:15 AM 80.6 °F 83.9 °F 69.8 °F 70% 29.98 in 10.0 mi SSW 16.1 mph 20.7 mph N/A   Clear
9:35 AM 80.6 °F 83.9 °F 69.8 °F 70% 29.98 in 10.0 mi SSW 17.3 mph 21.9 mph N/A   Clear
9:55 AM 82.4 °F 86.3 °F 69.8 °F 66% 29.97 in 10.0 mi South 15.0 mph 19.6 mph N/A   Clear
10:15 AM 82.4 °F 86.3 °F 69.8 °F 66% 29.97 in 10.0 mi South 15.0 mph 24.2 mph N/A   Clear
10:35 AM 82.4 °F 86.3 °F 69.8 °F 66% 29.97 in 10.0 mi South 19.6 mph 25.3 mph N/A   Clear
10:55 AM 82.4 °F 86.3 °F 69.8 °F 66% 29.97 in 10.0 mi South 18.4 mph 23.0 mph N/A   Clear
11:15 AM 84.2 °F 87.3 °F 68.0 °F 58% 29.97 in 10.0 mi South 18.4 mph 25.3 mph N/A   Clear
11:35 AM 84.2 °F 87.3 °F 68.0 °F 58% 29.98 in 10.0 mi SSW 18.4 mph 24.2 mph N/A   Clear
11:55 AM 86.0 °F 89.4 °F 68.0 °F 55% 29.98 in 10.0 mi South 18.4 mph 25.3 mph N/A   Clear
12:15 PM 86.0 °F 89.4 °F 68.0 °F 55% 29.97 in 10.0 mi SSW 18.4 mph - N/A   Clear
12:35 PM 86.0 °F 89.4 °F 68.0 °F 55% 29.97 in 10.0 mi SSW 15.0 mph 21.9 mph N/A   Clear
12:55 PM 86.0 °F 89.4 °F 68.0 °F 55% 29.97 in 10.0 mi South 17.3 mph 23.0 mph N/A   Clear
1:15 PM 87.8 °F 91.4 °F 68.0 °F 52% 29.96 in 10.0 mi South 16.1 mph 21.9 mph N/A   Clear
1:35 PM 86.0 °F 88.2 °F 66.2 °F 51% 29.96 in 10.0 mi South 17.3 mph 24.2 mph N/A   Clear
1:55 PM 86.0 °F 88.2 °F 66.2 °F 51% 29.95 in 10.0 mi South 18.4 mph - N/A   Clear
2:15 PM 86.0 °F 89.4 °F 68.0 °F 55% 29.92 in 10.0 mi SSE 15.0 mph 20.7 mph N/A   Clear
2:35 PM 86.0 °F 88.2 °F 66.2 °F 51% 29.91 in 10.0 mi SSE 13.8 mph 21.9 mph N/A   Clear
2:55 PM 86.0 °F 89.4 °F 68.0 °F 55% 29.90 in 10.0 mi South 20.7 mph 28.8 mph N/A   Clear
3:15 PM 86.0 °F 89.4 °F 68.0 °F 55% 29.90 in 10.0 mi South 11.5 mph 26.5 mph N/A   Clear
3:35 PM 86.0 °F 89.4 °F 68.0 °F 55% 29.91 in 10.0 mi South 17.3 mph 24.2 mph N/A   Clear
3:55 PM 87.8 °F 91.4 °F 68.0 °F 52% 29.91 in 10.0 mi South 16.1 mph 23.0 mph N/A   Clear
4:15 PM 86.0 °F 89.4 °F 68.0 °F 55% 29.90 in 10.0 mi South 19.6 mph 24.2 mph N/A   Clear
4:35 PM 86.0 °F 89.4 °F 68.0 °F 55% 29.89 in 10.0 mi South 19.6 mph 24.2 mph N/A   Clear
4:55 PM 86.0 °F 89.4 °F 68.0 °F 55% 29.89 in 10.0 mi South 17.3 mph 23.0 mph N/A   Clear
5:15 PM 84.2 °F 87.3 °F 68.0 °F 58% 29.87 in 10.0 mi South 18.4 mph 25.3 mph N/A   Clear
5:35 PM 84.2 °F 87.3 °F 68.0 °F 58% 29.87 in 10.0 mi South 18.4 mph 26.5 mph N/A   Clear
5:55 PM 82.4 °F 85.4 °F 68.0 °F 62% 29.86 in 10.0 mi South 11.5 mph 24.2 mph N/A   Clear
6:15 PM 84.2 °F 87.3 °F 68.0 °F 58% 29.86 in 10.0 mi South 11.5 mph - N/A   Clear
6:35 PM 84.2 °F 87.3 °F 68.0 °F 58% 29.85 in 10.0 mi South 16.1 mph 21.9 mph N/A   Clear
6:55 PM 82.4 °F 84.6 °F 66.2 °F 58% 29.86 in 10.0 mi South 12.7 mph 18.4 mph N/A   Clear
7:15 PM 82.4 °F 84.6 °F 66.2 °F 58% 29.86 in 10.0 mi South 15.0 mph 19.6 mph N/A   Clear
7:35 PM 80.6 °F 83.2 °F 68.0 °F 65% 29.86 in 10.0 mi South 11.5 mph - N/A   Clear
7:55 PM 80.6 °F 83.2 °F 68.0 °F 65% 29.86 in 10.0 mi South 10.4 mph - N/A   Clear
8:15 PM 78.8 °F - 68.0 °F 69% 29.86 in 10.0 mi South 12.7 mph 18.4 mph N/A   Clear
8:35 PM 78.8 °F - 68.0 °F 69% 29.86 in 10.0 mi South 10.4 mph - N/A   Clear
8:55 PM 77.0 °F - 68.0 °F 74% 29.86 in 10.0 mi South 9.2 mph - N/A   Clear
9:15 PM 78.8 °F - 68.0 °F 69% 29.87 in 10.0 mi South 10.4 mph - N/A   Clear
9:35 PM 77.0 °F - 68.0 °F 74% 29.88 in 10.0 mi South 8.1 mph - N/A   Clear
9:55 PM 77.0 °F - 68.0 °F 74% 29.88 in 10.0 mi South 6.9 mph - N/A   Clear
10:15 PM 77.0 °F - 68.0 °F 74% 29.88 in 10.0 mi South 9.2 mph - N/A   Clear
10:35 PM 77.0 °F - 68.0 °F 74% 29.88 in 10.0 mi South 8.1 mph - N/A   Clear
10:55 PM 75.2 °F - 68.0 °F 78% 29.88 in 10.0 mi South 8.1 mph - N/A   Clear
11:15 PM 75.2 °F - 68.0 °F 78% 29.88 in 10.0 mi South 9.2 mph - N/A   Clear
11:35 PM 77.0 °F - 68.0 °F 74% 29.88 in 10.0 mi South 11.5 mph - N/A   Clear
11:55 PM 75.2 °F - 68.0 °F 78% 29.87 in 10.0 mi South 10.4 mph - N/A   Clear